OneWeb SL0365

operational
NORAD ID: 49291 Int'l Des: 2021-090 Owner: ONEWEBN Country: UK Constellation: oneweb
LEOCIRCULARPOLARONEWEB_TYPE

Über OneWeb SL0365

Beschreibung wird geladen...

Live-Position

3D-Globus wird geladen...

Nächste Überflüge

Höhenverlauf

Altitude vs Time

uPlot chart will show altitude changes over time

Zweizeiliger Elementsatz

1 49291U 21090N 25258.27500793 .00000200 00000-0 46630-3 0 9996
2 49291 87.9269 359.6123 0001820 98.9024 261.2315 13.19726479190166
Epoch: 15. Sept. 2025 • Age: 10 hours

Aktueller Status

Höhe 1193.3 km
Geschwindigkeit 7.26 km/s
Subsatellitenpunkt -19.03°S, 65.19°W
Startdatum 14. Okt. 2021
Alter 3.9 years
Typ internet

Technische Details

Klassifizierung Payload
Masse 148.00 kg
Trockenmasse 140.00 kg
Gesamtmasse 148.00 kg
Länge 1.30 m
Durchmesser 1.00 m
Spannweite 5.00 m
Form Trapezoid+2 pan
Hersteller ONEWUS
Bus-Typ ARROW
Phasenstatus In Orbit
Besitzer/Staat ONEWEBN/UK

Große Konstellationen

Loading constellations...